Regional Weather Roundup
Issued by NWS Raleigh/Durham, NC

Home | Current Version | Previous Version | Text Only | Print | Product List | Glossary On
Versions: 1 2 3 4 5 6 7 8 9 10 11 12 13 14 15 16 17 18 19 20 21 22 23 24 25 26 27 28 29 30 31 32 33 34 35 36 37 38 39 40 41 42 43 44 45 46 47 48 49 50
000
ASUS42 KRAH 170810
RWRRAH
NORTH CAROLINA WEATHER ROUNDUP
NATIONAL WEATHER SERVICE RALEIGH NC
400 AM EDT TUE OCT 17 2017

NOTE: "FAIR" INDICATES FEW OR NO CLOUDS BELOW 12,000 FEET WITH NO
SIGNIFICANT WEATHER AND/OR OBSTRUCTIONS TO VISIBILITY.

NCZ001-053-055-056-065-067-170900-
WESTERN NORTH CAROLINA

CITY           SKY/WX    TMP DP  RH WIND       PRES   REMARKS
ASHEVILLE      CLEAR     42  37  82 CALM      30.29F
JEFFERSON      CLEAR     40  32  71 CALM      30.28S
MORGANTON      CLEAR     36  36 100 CALM      30.32F
HICKORY        CLEAR     44  42  93 NW5       30.28S
RUTHERFORDTON  CLEAR     47  39  75 N5        30.29S
MOUNT AIRY     CLEAR     45  39  80 NW3       30.30F
BOONE          CLEAR     33  33 100 CALM      30.29S
$$

NCZ021-022-025-041-071-084-088-170900-
CENTRAL NORTH CAROLINA

CITY           SKY/WX    TMP DP  RH WIND       PRES   REMARKS
CHARLOTTE      CLEAR     50  40  68 N8        30.27S
GREENSBORO     CLEAR     46  40  79 NE5       30.26S
WINSTON-SALEM  CLEAR     44  38  79 NE3       30.28F
RALEIGH-DURHAM CLEAR     49  42  77 N5        30.25S
FORT BRAGG     CLOUDY    49  45  85 N7        30.22S
FAYETTEVILLE   CLOUDY    51  47  86 N8        30.22S
BURLINGTON     CLEAR     47  41  80 N5        30.26S
LAURINBURG     PTCLDY    50  45  83 N8        30.23S
$$

NCZ011-015-027-028-043-044-047-080-103-170900-
NORTHEASTERN NORTH CAROLINA

CITY           SKY/WX    TMP DP  RH WIND       PRES   REMARKS
ROCKY MT-WILSO CLEAR     49  43  80 N8        30.23F
GREENVILLE     CLEAR     46  43  87 N6        30.22S
WASHINGTON     CLOUDY    49  43  82 N7        30.20S
ELIZABETH CITY CLEAR     55  47  74 N10       30.19S
MANTEO         PTCLDY   N/A N/A N/A NE15G31   30.16S
CAPE HATTERAS  MOCLDY    63  49  60 NE17G29   30.13R
$$

NCZ078-087-090-091-093-098-101-170900-
SOUTHEASTERN NORTH CAROLINA

CITY           SKY/WX    TMP DP  RH WIND       PRES   REMARKS
LUMBERTON        N/A    N/A N/A N/A N5        30.21S
GOLDSBORO      CLOUDY    50  43  76 N10       30.20S
KINSTON        CLOUDY    49  43  80 N7        30.21S
KENANSVILLE    PTCLDY    50  45  81 N8        30.21S
NEW BERN       CLOUDY    53  46  77 N9        30.19S
CHERRY POINT   CLOUDY    56  49  77 N16G24    30.16F
BEAUFORT       PTCLDY    58  49  72 N13       30.14S
JACKSONVILLE   PTCLDY    53  46  77 N10       30.17S
WILMINGTON     CLOUDY    54  44  69 N10       30.16F
$$




USA.gov is the U.S. government's official web portal to all federal, state and local government web resources and services.